Luverne, MN

3:40 PM CST on December 09, 2019 (GMT -0600)
Luverne

Weather History for KLYV - November, 2019

Change the Weather History Date:

Thursday, November 14, 2019

  Actual Average (WUND) Record (WUND)
Temperature  
Mean Temperature 26 °F -  
Max Temperature 39 °F - - (-1)
Min Temperature 12 °F - - (-1)
Degree Days  
Heating Degree Days 40    
Moisture  
Dew Point 19 °F    
Average Humidity 79    
Maximum Humidity 93    
Minimum Humidity 52    
Precipitation  
Precipitation 0.00 in - - ()
Sea Level Pressure  
Sea Level Pressure 30.24 in    
Wind  
Wind Speed 5 mph (West)    
Max Wind Speed 12 mph    
Max Gust Speed 17 mph    
Visibility 10 miles    
Events      
Averages and records for this station are not official NWS values.
T = Trace of Precipitation, MM = Missing Value Source: NWS Daily Summary

Daily Weather History Graph

Daily Weather History Graph

Search for Another Location

Airport or City:

Astronomy

Nov. 14, 2019 Rise Set
Actual Time 7:17 AM CST 5:00 PM CST
Civil Twilight 6:46 AM CST 5:31 PM CST
Nautical Twilight 6:11 AM CST 6:06 PM CST
Astronomical Twilight 5:38 AM CST 6:40 PM CST
Moon 6:44 PM CST (11/14) 9:16 AM CST (11/14)
Length of Visible Light 10h 45m
Length of Day
9h 43m
Waning Gibbous, 95% of the Moon is Illuminated
Nov 14
Waning Gibbous
Nov 19
Last Quarter
Nov 26
New
Dec 4
First Quarter
Dec 11
Full

Hourly Weather History & Observations

Time (CST) Temp. Windchill Dew Point Humidity Pressure Visibility Wind Dir Wind Speed Gust Speed Precip Events Conditions
12:16 AM 21.2 °F 14.9 °F 17.6 °F 86% 30.14 in 10.0 mi North 4.6 mph - N/A   Clear
12:36 AM 19.4 °F 14.3 °F 15.8 °F 86% 30.15 in 10.0 mi NNW 3.5 mph - N/A   Clear
12:56 AM 19.4 °F 14.3 °F 15.8 °F 86% 30.16 in 10.0 mi NNW 3.5 mph - N/A   Clear
1:15 AM 19.4 °F 12.8 °F 14.0 °F 80% 30.16 in 10.0 mi NW 4.6 mph - N/A   Clear
1:19 AM 17.6 °F 10.7 °F 14.0 °F 86% 30.16 in 10.0 mi NW 4.6 mph - N/A   Clear
1:38 AM 17.6 °F 10.7 °F 14.0 °F 86% 30.17 in 10.0 mi NW 4.6 mph - N/A   Clear
1:56 AM 17.6 °F 12.3 °F 14.0 °F 86% 30.17 in 10.0 mi NW 3.5 mph - N/A   Clear
2:16 AM 17.6 °F 10.7 °F 14.0 °F 86% 30.18 in 10.0 mi NW 4.6 mph - N/A   Clear
2:36 AM 17.6 °F 12.3 °F 14.0 °F 86% 30.19 in 10.0 mi NW 3.5 mph - N/A   Clear
2:58 AM 15.8 °F 10.2 °F 12.2 °F 86% 30.20 in 10.0 mi NW 3.5 mph - N/A   Clear
3:16 AM 15.8 °F 7.2 °F 12.2 °F 86% 30.20 in 10.0 mi NW 5.8 mph - N/A   Clear
3:36 AM 14.0 °F 8.2 °F 12.2 °F 93% 30.21 in 10.0 mi NW 3.5 mph - N/A   Clear
3:56 AM 15.8 °F 8.6 °F 12.2 °F 86% 30.21 in 10.0 mi NNW 4.6 mph - N/A   Clear
4:15 AM 14.0 °F 6.5 °F 12.2 °F 93% 30.21 in 10.0 mi NNW 4.6 mph - N/A   Clear
4:19 AM 15.8 °F 8.6 °F 12.2 °F 86% 30.21 in 10.0 mi NNW 4.6 mph - N/A   Clear
4:37 AM 15.8 °F 8.6 °F 12.2 °F 86% 30.22 in 10.0 mi NNW 4.6 mph - N/A   Clear
4:55 AM 14.0 °F 8.2 °F 12.2 °F 93% 30.22 in 10.0 mi NW 3.5 mph - N/A   Clear
5:16 AM 14.0 °F 6.5 °F 10.4 °F 86% 30.23 in 10.0 mi NW 4.6 mph - N/A   Clear
5:36 AM 12.2 °F 2.9 °F 10.4 °F 92% 30.24 in 10.0 mi WNW 5.8 mph - N/A   Clear
5:58 AM 14.0 °F 6.5 °F 10.4 °F 86% 30.25 in 10.0 mi NW 4.6 mph - N/A   Clear
6:16 AM 14.0 °F 5.1 °F 10.4 °F 86% 30.25 in 10.0 mi NW 5.8 mph - N/A   Clear
6:36 AM 12.2 °F 4.3 °F 10.4 °F 92% 30.26 in 10.0 mi WNW 4.6 mph - N/A   Clear
6:56 AM 12.2 °F 2.9 °F 10.4 °F 92% 30.26 in 10.0 mi WNW 5.8 mph - N/A   Clear
7:37 AM 12.2 °F 2.9 °F 10.4 °F 92% 30.27 in 10.0 mi WNW 5.8 mph - N/A   Clear
7:56 AM 14.0 °F 6.5 °F 10.4 °F 86% 30.27 in 10.0 mi WNW 4.6 mph - N/A   Clear
8:16 AM 14.0 °F 8.2 °F 10.4 °F 86% 30.28 in 10.0 mi WNW 3.5 mph - N/A   Clear
8:36 AM 15.8 °F - 12.2 °F 86% 30.29 in 10.0 mi Calm Calm - N/A   Clear
8:58 AM 17.6 °F - 14.0 °F 86% 30.28 in 10.0 mi Calm Calm - N/A   Clear
9:16 AM 19.4 °F 12.8 °F 15.8 °F 86% 30.28 in 10.0 mi NW 4.6 mph - N/A   Clear
9:36 AM 21.2 °F 13.6 °F 17.6 °F 86% 30.28 in 10.0 mi West 5.8 mph - N/A   Clear
9:56 AM 21.2 °F 13.6 °F 17.6 °F 86% 30.29 in 10.0 mi West 5.8 mph - N/A   Clear
10:38 AM 24.8 °F 17.9 °F 17.6 °F 74% 30.31 in 10.0 mi WNW 5.8 mph - N/A   Clear
10:55 AM 26.6 °F 20.0 °F 17.6 °F 69% 30.29 in 10.0 mi WNW 5.8 mph - N/A   Clear
11:16 AM 28.4 °F 23.3 °F 19.4 °F 69% 30.29 in 10.0 mi West 4.6 mph - N/A   Clear
11:35 AM 30.2 °F 23.4 °F 19.4 °F 64% 30.29 in 10.0 mi West 6.9 mph - N/A   Clear
11:58 AM 32.0 °F 23.6 °F 19.4 °F 60% 30.29 in 10.0 mi West 10.4 mph - N/A   Clear
12:16 PM 32.0 °F 24.2 °F 21.2 °F 64% 30.29 in 10.0 mi West 9.2 mph 17.3 mph N/A   Clear
12:36 PM 33.8 °F 26.4 °F 21.2 °F 60% 30.28 in 10.0 mi West 9.2 mph - N/A   Clear
12:56 PM 33.8 °F 25.8 °F 21.2 °F 60% 30.27 in 10.0 mi West 10.4 mph - N/A   Clear
1:15 PM 35.6 °F 28.0 °F 23.0 °F 60% 30.26 in 10.0 mi West 10.4 mph - N/A   Clear
1:19 PM 35.6 °F 28.6 °F 21.2 °F 56% 30.26 in 10.0 mi West 9.2 mph - N/A   Clear
1:37 PM 35.6 °F 28.6 °F 23.0 °F 60% 30.26 in 10.0 mi West 9.2 mph - N/A   Clear
1:55 PM 35.6 °F 27.5 °F 23.0 °F 60% 30.26 in 10.0 mi West 11.5 mph - N/A   Clear
2:16 PM 37.4 °F 30.3 °F 23.0 °F 56% 30.25 in 10.0 mi West 10.4 mph - N/A   Clear
2:58 PM 37.4 °F 29.8 °F 23.0 °F 56% 30.24 in 10.0 mi West 11.5 mph - N/A   Clear
3:16 PM 39.2 °F 32.5 °F 23.0 °F 52% 30.24 in 10.0 mi WSW 10.4 mph - N/A   Scattered Clouds
3:36 PM 39.2 °F 32.5 °F 23.0 °F 52% 30.23 in 10.0 mi West 10.4 mph - N/A   Scattered Clouds
4:15 PM 37.4 °F 32.1 °F 24.8 °F 60% 30.23 in 10.0 mi WSW 6.9 mph - N/A   Scattered Clouds
4:19 PM 37.4 °F 31.4 °F 24.8 °F 60% 30.23 in 10.0 mi WSW 8.1 mph - N/A   Scattered Clouds
4:38 PM 35.6 °F 30.7 °F 26.6 °F 70% 30.23 in 10.0 mi WSW 5.8 mph - N/A   Scattered Clouds
4:55 PM 33.8 °F 27.7 °F 24.8 °F 70% 30.22 in 10.0 mi WSW 6.9 mph - N/A   Clear
5:16 PM 32.0 °F 26.4 °F 26.6 °F 80% 30.22 in 10.0 mi WSW 5.8 mph - N/A   Clear
5:36 PM 32.0 °F 28.7 °F 26.6 °F 80% 30.22 in 10.0 mi SW 3.5 mph - N/A   Clear
5:58 PM 32.0 °F 23.6 °F 26.6 °F 80% 30.23 in 10.0 mi WSW 10.4 mph - N/A   Clear
6:36 PM 32.0 °F 24.8 °F 26.6 °F 80% 30.24 in 10.0 mi WSW 8.1 mph - N/A   Clear
6:56 PM 32.0 °F 24.2 °F 28.4 °F 87% 30.24 in 10.0 mi WSW 9.2 mph - N/A   Clear
7:15 PM 32.0 °F 24.2 °F 26.6 °F 80% 30.24 in 10.0 mi WSW 9.2 mph - N/A   Clear
7:19 PM 32.0 °F 24.2 °F 26.6 °F 80% 30.24 in 10.0 mi WSW 9.2 mph - N/A   Clear
7:37 PM 32.0 °F 24.8 °F 26.6 °F 80% 30.24 in 10.0 mi SW 8.1 mph - N/A   Clear
7:55 PM 32.0 °F 24.8 °F 26.6 °F 80% 30.24 in 10.0 mi SW 8.1 mph - N/A   Clear
8:15 PM 32.0 °F 24.8 °F 26.6 °F 80% 30.24 in 10.0 mi SW 8.1 mph - N/A   Clear
8:36 PM 30.2 °F 26.7 °F 26.6 °F 86% 30.25 in 10.0 mi South 3.5 mph - N/A   Clear
8:58 PM 30.2 °F - 26.6 °F 86% 30.25 in 10.0 mi Calm Calm - N/A   Clear
9:16 PM 30.2 °F 26.7 °F 26.6 °F 86% 30.25 in 10.0 mi South 3.5 mph - N/A   Clear
9:36 PM 30.2 °F 24.3 °F 26.6 °F 86% 30.25 in 10.0 mi SSE 5.8 mph - N/A   Clear
9:56 PM 30.2 °F 24.3 °F 26.6 °F 86% 30.25 in 10.0 mi South 5.8 mph - N/A   Clear
10:15 PM 26.6 °F 21.2 °F 23.0 °F 86% 30.25 in 10.0 mi South 4.6 mph - N/A   Clear
10:20 PM 26.6 °F 22.6 °F 23.0 °F 86% 30.25 in 10.0 mi South 3.5 mph - N/A   Clear
10:39 PM 28.4 °F - 24.8 °F 86% 30.25 in 10.0 mi Calm Calm - N/A   Clear
10:57 PM 26.6 °F 22.6 °F 23.0 °F 86% 30.25 in 10.0 mi South 3.5 mph - N/A   Clear
11:16 PM 28.4 °F - 24.8 °F 86% 30.25 in 10.0 mi Calm Calm - N/A   Clear
11:36 PM 28.4 °F - 24.8 °F 86% 30.25 in 10.0 mi Calm Calm - N/A   Clear
11:55 PM 26.6 °F - 23.0 °F 86% 30.26 in 10.0 mi Calm Calm - N/A   Clear
11:59 PM 26.6 °F - 24.8 °F 93% 30.26 in 10.0 mi Calm Calm - N/A   Clear